Location: *
(28.3744°N, 81.5492°W)
Time: 03:24:40
(UTC+00:00)

H-2A R/B - Pass Details

Date: 15 June 2025
Orbit: 729 x 830 km, 98.3° (Epoch: 11 July)

Event Time Altitude Azimuth Distance (km) Brightness Sun altitude
Rises 09:51:28 0° 353° (N) 3,309 5.7 -7.9°
Reaches altitude 10° 09:54:19 10° 338° (NNW) 2,358 4.7 -7.4°
Maximum altitude 09:58:08 21° 291° (WNW) 1,687 3.5 -6.7°
Drops below altitude 10° 10:01:53 10° 243° (WSW) 2,300 3.8 -6.0°
Enters shadow 10:02:45 - 237° (WSW) 2,565 4.0 -5.8°
